Regional Weather Roundup
Issued by NWS Grand Forks, ND

Home | Current Version | Previous Version | Text Only | Print | Product List | Glossary Off
Versions: 1 2 3 4 5 6 7 8 9 10 11 12 13 14 15 16 17 18 19 20 21 22 23 24 25 26 27 28 29 30 31 32 33 34 35 36 37 38 39 40 41 42 43 44 45 46 47 48 49 50

000
ASUS43 KFGF 160910
RWRFGF
PRAIRIE TO PINES  WEATHER ROUNDUP
NATIONAL WEATHER SERVICE EASTERN NORTH DAKOTA/GRAND FORKS ND
300 AM CST TUE JAN 16 2018

 **SATELLITE DATA USED TO AUGMENT SKY COVER AT AUTOMATED STATIONS**
 *****  WEATHER ACROSS EASTERN NORTH DAKOTA  *****

CITY           SKY/WX    TMP DP  RH WIND       PRES   REMARKS
GRAND FORKS    FAIR     -15 -20  78 W7        30.82F WCI -31
GRAND FRKS AFB FAIR     -15 -23  68 NW8       30.82S WCI -33
GRAND FRKS NWS   N/A    -13 N/A N/A NW5         N/A  WCI -25
DEVILS LAKE    FAIR     -19 -24  77 W5        30.76F WCI -32
FARGO          CLOUDY   -10 -17  71 N13       30.82S WCI -30
WAHPETON ARPT  CLOUDY    -9 -17  70 NW13G18   30.80F WCI -30
$$

 ***** WEATHER ACROSS CENTRAL AND WESTERN NORTH DAKOTA  *****

CITY           SKY/WX    TMP DP  RH WIND       PRES   REMARKS
BISMARCK       FAIR     -21 -26  77 CALM      30.79F
MINOT          FAIR     -13 -19  75 S8        30.71F WCI -30
JAMESTOWN      FAIR     -14 -19  79 NW8       30.77S WCI -31
MINOT AFB      FAIR     -15 -21  71 SW5       30.71F WCI -27
GARRISON         N/A    -17 -22  78 CALM      30.72F
WILLISTON      FAIR     -17 -23  73 S6        30.67F WCI -32
DICKINSON      FAIR     -15 -21  74 S8        30.61F WCI -32
HETTINGER      FAIR     -20 -27  70 CALM      30.66F
$$

 *****  OTHER AIRPORT OBSERVATIONS IN OUR AREA  *****

CITY           SKY/WX    TMP DP  RH WIND       PRES   REMARKS
WALHALLA       FAIR     -11 -20  64 SW6       30.79F WCI -25
GRAFTON AIRPOR FAIR     -15 -20  76 W5        30.85S WCI -27
VALLEY CITY AR FAIR     -15 -22  70 NW12      30.78F WCI -36
CANDO          FAIR     -22 -27  76 W7        30.77F WCI -39
CAVALIER APRT    N/A    -13 -20  70 CALM      30.80F
GWINNER          N/A    -11 -18  70 NW7       30.79S WCI -26
SHEYENNE NWR     N/A    -12 -21  65 NW5       29.95S WCI -24
ROLLA          FAIR     -11 -18  70 SW7       30.68F WCI -26
 ***** THE ABOVE OBSERVATIONS ARE NON NWS ARE NOT QUALITY
       CONTROLLED AND MAY MIS-REPORT RAIN FOR SNOW...
$$

  *****  WEATHER ACROSS NORTHERN MINNESOTA  *****

CITY           SKY/WX    TMP DP  RH WIND       PRES   REMARKS
FLAG ISLAND    FAIR     -17 -20  83 NW8       30.72F WCI -34
WARROAD        FAIR     -17 -22  76 W3        30.74S
ROSEAU         FAIR     -17 -20  83 W6        30.76S WCI -31
HALLOCK        FAIR     -17 -24  70 CALM      30.81F
THF RVR FALLS  FAIR     -18 -23  77 NW6       30.77F WCI -33
BAUDETTE       CLOUDY   -15 -20  78 W3        30.71R
WASKISH        CLOUDY    -8 -11  84 NW5       30.70S WCI -19
CROOKSTON      FAIR     -15 -20  76 N7        30.82S WCI -31
STEPHEN NDAWN    N/A    -17 -22  76 NW3         N/A
GREENBUSH NDAW   N/A    -20 -26  76 W3          N/A
$$
  *****  WEATHER ACROSS CENTRAL AND WEST MINNESOTA  *****

CITY           SKY/WX    TMP DP  RH WIND       PRES   REMARKS
FOSSTON        CLOUDY   -15 -18  84 N7        30.74S WCI -31
BEMIDJI        CLOUDY    -8 -12  83 NW8       30.67F WCI -25
PARK RAPIDS    CLOUDY    -5 -10  79 N9        30.66R WCI -22
ELBOW LAKE     CLOUDY   -12 -17  79 W17G23    30.75R WCI -36
WADENA         CLOUDY    -9 -15  77 NW8       30.67R WCI -26
DETROIT LAKES  CLOUDY   -13 -17  84 N8        30.72S WCI -30
MOORHEAD       CLOUDY   -11 -18  70 N12       30.81S WCI -31
FERGUS FALLS   CLOUDY   -13 -18  77 N10       30.81R WCI -32
MORRIS MN      CLOUDY    -9 -17  70 NW16      30.74R WCI -32
STAPLES        CLOUDY    -6  -8  92 N8        30.66R WCI -21
$$
  *****  WEATHER ELSEWHERE ACROSS MINNESOTA  *****

CITY           SKY/WX    TMP DP  RH WIND       PRES   REMARKS
DULUTH         FAIR       0  -2  91 N10       30.56S WCI -16
INTRNTL FALLS  CLOUDY    -2  -6  83 N7        30.67S WCI -15
ELY            CLOUDY     0  -4  85 NW5       30.59S WCI -10
CLOQUET        FAIR       1  -4  78 NW13      30.58R WCI -16
WHEATON        CLOUDY    -8 -15  71 NW15G21   30.81R WCI -29
BRAINERD       CLOUDY    -2  -7  79 N9        30.65R WCI -18
HIBBING        CLOUDY    -1  -4  87 N10       30.60S FOG     WCI -17
ALEXANDRIA     CLOUDY   -10 -14  82 NW13      30.68R WCI -30
SAINT CLOUD    CLOUDY    -2  -5  87 N14G20    30.64R WCI -21
MINNEAPOLIS    MOCLDY    -1  -5  82 NW8       30.62R WCI -15
$$

  *****  WEATHER ACROSS SOUTH DAKOTA  *****

CITY           SKY/WX    TMP DP  RH WIND       PRES   REMARKS
SIOUX FALLS    CLOUDY    -3  -8  79 N14       30.70R WCI -22
BROOKINGS      CLOUDY    -7 -11  83 NW15      30.68R WCI -28
WATERTOWN      CLOUDY    -9 -14  78 N17       30.68S WCI -32
HURON          FAIR      -9 -15  75 NW14      30.81R WCI -30
SISSETON         N/A     -8 -14  74 NW18      30.78R WCI -32
ABERDEEN       CLOUDY   -10 -16  74 NW6       30.82S WCI -23
MITCHELL       FAIR      -6 -13  71 N17       30.80R WCI -28
PIERRE         FAIR      -8 -14  74 NW12      30.80R WCI -27
MOBRIDGE       FAIR     -11 -18  71 N6        30.75F WCI -25
RAPID CITY     FAIR      -9 -15  75 SE5       30.64F WCI -20
$$

  *****  SOME WEATHER IN NEARBY STATES *****

CITY           SKY/WX    TMP DP  RH WIND       PRES   REMARKS
GLASGOW MT     FAIR     N/A N/A N/A E17       30.53F
GREAT FALLS MT FAIR      23   9  55 S10       30.21F WCI  12
CHEYENNE WY    FAIR      -2  -7  79 W9        30.41F WCI -18
SCOTTSBLUFF NE FAIR      -8 -13  78 E6        30.60S WCI -21
OMAHA NE       CLOUDY    -1  -9  68 N23       30.71R WCI -25
DES MOINES IA  FLURRIES  -6 -13  71 NW13      30.62S WCI -25
DAVENPORT IA   FLURRIES N/A N/A N/A W16G26    30.51R
CHICAGO IL     FLURRIES  10   4  76 W10       30.34S WCI  -4
EAU CLAIRE WI  FAIR       7   3  84 N6        30.51R WCI  -3
LA CROSSE WI   LGT SNOW   9   3  77 N12       30.52R WCI  -6
$$

  *****  SOME NATIONAL WEATHER *****

CITY           SKY/WX    TMP DP  RH WIND       PRES   REMARKS
LA GUARDIA NY  CLOUDY    25  18  74 E3        30.51S
RALEIGH NC     FAIR      21  16  81 CALM      30.45S
ATLANTA GA     FAIR      33  24  69 CALM      30.39F
NEW ORLEANS LA FAIR      44  43  96 CALM      30.35F
OKLAHOMA CITY  FAIR      10  -3  55 N18G28    30.73R WCI  -8
ALBUQUERQUE NM FAIR      25  15  66 E20G28    30.42R WCI  11
SALT LAKE CITY FAIR      33  27  78 CALM      30.28F
LOS ANGELES CA FAIR      58  57  97 CALM      30.12F
BOISE ID       FAIR      37  29  72 SE9       30.20F
SEATTLE WA     LGT RAIN  50  47  89 SW5       30.03R
$$

*** WEATHER ACROSS MANITOBA...SASKATCHEWAN AND ONTARIO ***
                ***ONTARIO***

CITY           SKY/WX    TMP DP  RH WIND       PRES   REMARKS
GERALDTON      FLURRIES   0  -4  85 CALM      30.54F
THUNDER BAY    CLEAR      0  -4  85 SW8       30.61S WCI -15
SIOUX LOOKOUT  LGT SNOW  -6 -11  77 NW5       30.62F FOG     WCI -17
TORONTO        FLURRIES  18  14  86 N6        30.30S WCI   9
BIG TROUT LK   MOCLDY   -11 -17  77 SW8       30.44F WCI -28
PICKLE LAKE    NOT AVBL
DRYDEN         CLOUDY    -8 -11  84 W5        30.63  WCI -19
KENORA         PTCLDY   -13 -18  77 NW7       30.67S WCI -29
$$
                *** MANITOBA***

CITY           SKY/WX    TMP DP  RH WIND       PRES   REMARKS
BRANDON        PTCLDY   -17 -24  70 W8        30.70F WCI -34
DAUPHIN        CLOUDY     0  -9  65 SW15      30.63F WCI -20
ISLAND LAKE    MOCLDY    -6 -15  65 SW14      30.49F WCI -26
PILOT MOUND      N/A    -18 -24  76 SW6         N/A  WCI -33
THE PAS        MOCLDY     0  -9  65 S10       30.44F WCI -17
THOMPSON       CLOUDY     0  -8  71 SW12      30.26F WCI -18
WINNIPEG       MOCLDY   -11 -18  70 SW8       30.78F WCI -28
LYNN LAKE      CLEAR      5  -2  72 SW10G17   30.11F WCI -10
CHURCHILL      CLOUDY     9   1  72 W14G22    29.96F WCI  -8
GILLAM         CLOUDY     1  -8  66 SW18G29   30.15F WCI -19
$$
                ***SASKATCHEWAN***

CITY           SKY/WX    TMP DP  RH WIND       PRES   REMARKS
ESTEVAN        CLEAR     -9 -17  70 SW12      30.63F WCI -29
KINDERSLEY     CLEAR      1  -8  66 S7        30.24F WCI -11
LLOYDMINSTER   CLEAR      1  -8  66 S14G20    30.16F WCI -17
PRINCE ALBERT  CLEAR    -18 -24  76 E5        30.42F WCI -31
REGINA         MOCLDY    -9 -15  77 SE14      30.51F WCI -31
YORKTON        CLOUDY     0  -9  65 S13G18    30.53F WCI -18
N. BATTLEFORD  CLEAR     -6 -15  65 E13       30.31F WCI -25
LA RONGE       CLEAR     -8 -13  77 CALM      30.30F
SASKATOON      CLEAR     -2 -11  65 S14       30.39F WCI -21
SWIFT CURRENT  CLEAR      5  -4  66 S28G35    30.27F WCI -18
$$
NOTE: THESE ARE AUTOMATED STATIONS WITH LIMITED QUALITY CONTROL
      "FAIR" INDICATES FEW OR NO CLOUDS BELOW 12,000 FEET WITH NO
      SIGNIFICANT WEATHER AND/OR OBSTRUCTIONS TO VISIBILITY.
      SKY/WX - SKY CONDITION AND SIGNIFICANT WEATHER.
      TMP - AIR TEMPERATURE.    DP   - DEWPOINT TEMPERATURE.
      RH  - RELATIVE HUMIDITY.  PRES - PRESSURE.
      HX  - HEAT INDEX.         WCI  - WIND CHILL INDEX.
$




USA.gov is the U.S. government's official web portal to all federal, state and local government web resources and services.